Weather in Nizhniye Achaluki

Russia / Republic of Ingushetia     43°24′09″N   44°45′35″E
temp.,
°C
wind,
m/s
gust,
m/s
humid.,
%
clouds,
%
prec.,
mm/h
press.,
hPa
HPBL,
m
14 august, sun
sun1400:00+22ene11490 0.0 100812
03:00+21w11540 0.0 100712
06:00+21wsw23580 0.0 100765
09:00+27nw21380 0.0 1006568
12:00+33ne33270 0.0 10051382
15:00+35nne33250 0.0 10031767
18:00+34nnw22290 0.0 100364
21:00+26ese34370 0.0 100557
15 august, mon
mon1500:00+24sse11430 0.0 100411
03:00+22wnw22523 0.0 100519
06:00+23wsw22530 0.0 100534
09:00+29nnw21350 0.0 1005620
12:00+34nne32260 0.0 10041244
15:00+37ne33220 0.0 10021854
18:00+36ne46180 0.0 1002302
21:00+27e23330 0.0 100440
16 august, tue
tue1600:00+25sw01410 0.0 100511
03:00+23w33490 0.0 100639
06:00+23wsw34480 0.0 100787
09:00+29w67380 0.0 1008712
12:00+35wnw55250 0.0 10071465
15:00+37nw33220 0.0 10062182
18:00+36nnw23250 0.0 100699
21:00+29sw22360 0.0 100813
17 august, wed
wed1700:00+27w35430 0.0 100973
03:00+25wsw35490 0.0 100978
06:00+25wsw34520 0.0 101085
09:00+32nw33300 0.0 1009859
12:00+36nne32230 0.0 10071894
15:00+38ne33190 0.0 10052604
18:00+37nne34210 0.0 1005233
21:00+30sse22320 0.0 100611
18 august, thu
thu1800:00+27ssw22390 0.0 100513
03:00+25sw22323 0.0 100615
06:00+25wsw34330 0.0 100770
09:00+32wnw55333 0.0 1006691
12:00+36nnw33242 0.0 10052037
15:00+39n4419100 0.0 10032889
18:00+36ne45210 0.0 1003399
21:00+27se3336100 0.0 100432